Weather in El Alto

Bolivia     16°31′51″S   68°11′37″W
temp.,
°C
wind,
m/s
gust,
m/s
humid.,
%
clouds,
%
prec.,
mm/h
press.,
hPa
HPBL,
m
9 may, sun
sun923:00+3se11905 0.0 102310
02:00+3n22905 0.0 102210
05:00+2nnw12830 0.0 102110
08:00+5sse01602 0.0 102287
11:00+10ssw22395 0.0 10191293
14:00+13ssw343142 0.0 10142335
17:00+12wnw123876 0.1 10141511
20:00+6ese22600 0.1 101813
10 may, mon
mon1023:00+5ese22835 0.0 102017
02:00+3se33878 0.0 102127
05:00+2ese22825 0.0 102010
08:00+5ese22660 0.0 1022129
11:00+10sse33445 0.0 10191136
14:00+12se434192 0.3 10141928
17:00+9ene55625 0.6 1015468
20:00+5ne337851 0.6 102044
11 may, tue
tue1123:00+4nnw118092 0.0 102213
02:00+4ssw018978 0.0 102287
05:00+3se229020 0.0 102235
08:00+5nnw117714 0.0 1022226
11:00+10wsw235517 0.0 10191178
14:00+13w334018 0.2 10121965
17:00+11w334962 0.1 1012943
20:00+6ne127471 0.2 101725
12 may, wed
wed1223:00+4ne228191 0.0 102036
02:00+4ne1279100 0.0 102099
05:00+3ne1282100 0.0 102044
08:00+5ene1373100 0.0 1021366
11:00+8ne2258100 0.1 10191205
14:00+10wsw124792 0.1 10151507
17:00+9wnw445278 0.0 10141028
20:00+7ese2270100 0.1 101739
13 may, thu
thu1323:00+5sse2286100 0.0 1021128
02:00+3wnw229366 0.0 102113
05:00+3nw3389100 0.0 102152
08:00+5wnw348137 0.0 1022273
11:00+10w455677 0.0 10191074
14:00+13w6643100 0.2 10142019
17:00+11nw544341 0.0 1013796
20:00+6wsw2269100 0.5 101919